WXM80 ListenWXM80 Stop

You find our weather info also at:

UK Metoffice

WeatherCloud

Weather Underground

Northeastern Weather Network

AWEKAS

Citizen Weather Observer Program (CWOP)

HAMweather, WeatherForYou, PWS Weather


Weather Underground History page Text

Daily Summary for May 29, 2017 Units:  Metric    English   Both
« Previous Day
Next Day »
Daily Weekly Monthly Yearly Custom
  High: Low: Average:
Temperature: 15.1 °C 12.3 °C 13.4 °C
Dew Point: 13.8 °C 11.7 °C 12.4 °C
Humidity: 98 % 81 % 94 %
Wind Speed: 12.2 km/h 0 km/h 2.7 km/h
Wind Gust: 25.9 km/h - -
Wind:- - ENE
Pressure: 1018.2 hPa 1010.4 hPa -
Precipitation: 7.11 mm    
Historical Graphs
 
 
Tabular Data for May 29, 2017
Time Temperature Dew Point Pressure Wind Wind Speed Wind Gust Humidity Rainfall Rate (Hourly)
00:04 15.1 °C 11.9 °C 1012.1 hPa Calm     81 % 0 mm
00:09 15.1 °C 11.9 °C 1012.1 hPa SSE 0.2 km/h 1.9 km/h 81 % 0 mm
00:12 15.1 °C 11.8 °C 1012.1 hPa Calm     81 % 0 mm
00:17 15.1 °C 12 °C 1012.1 hPa Calm     82 % 0 mm
00:22 15.1 °C 12 °C 1012.1 hPa Calm     82 % 0 mm
00:27 15.1 °C 12 °C 1012.1 hPa Calm   1.9 km/h 82 % 0 mm
00:32 15.1 °C 12 °C 1012.1 hPa SSE 0.2 km/h 1.9 km/h 82 % 0 mm
00:37 15 °C 12.1 °C 1012.1 hPa SSE 0.2 km/h 1.9 km/h 83 % 0 mm
00:42 15 °C 12.3 °C 1012.1 hPa SSE 0.3 km/h 1.9 km/h 84 % 0 mm
00:47 15 °C 12.3 °C 1012.1 hPa SSE 0.2 km/h 1.9 km/h 84 % 0 mm
00:52 15 °C 12.3 °C 1012.1 hPa SSE 0.3 km/h 1.9 km/h 84 % 0 mm
00:53 15 °C 12.3 °C 1012.1 hPa SSE 0.5 km/h 1.9 km/h 84 % 0 mm
00:58 15 °C 12.3 °C 1011.7 hPa SSE 0.3 km/h 1.9 km/h 84 % 0 mm
01:03 14.9 °C 12.3 °C 1011.7 hPa SSE 0.8 km/h 1.9 km/h 84 % 0 mm
01:08 14.9 °C 12.3 °C 1011.7 hPa SSE 0.2 km/h 1.9 km/h 84 % 0 mm
01:13 14.9 °C 12.4 °C 1011.7 hPa East 0.3 km/h 3.7 km/h 85 % 0 mm
01:18 14.9 °C 12.6 °C 1011.7 hPa Calm   1.9 km/h 86 % 0 mm
01:23 14.9 °C 12.6 °C 1011.7 hPa East 0.5 km/h 3.7 km/h 86 % 0 mm
01:28 14.9 °C 12.6 °C 1011.4 hPa East 0.2 km/h 1.9 km/h 86 % 0 mm
01:33 14.8 °C 12.5 °C 1011.4 hPa East 0.8 km/h 1.9 km/h 86 % 0 mm
01:38 14.8 °C 12.4 °C 1011.4 hPa East 0.2 km/h 1.9 km/h 86 % 0 mm
01:43 14.8 °C 12.4 °C 1011.4 hPa East 0.5 km/h 1.9 km/h 86 % 0 mm
01:48 14.8 °C 12.4 °C 1011.4 hPa East 0.5 km/h 1.9 km/h 86 % 0 mm
01:53 14.8 °C 12.4 °C 1011.4 hPa East 0.6 km/h 3.2 km/h 86 % 0 mm
01:58 14.7 °C 12.4 °C 1011.4 hPa East 0.2 km/h 1.9 km/h 86 % 0 mm
02:03 14.7 °C 12.4 °C 1011.4 hPa East 0.8 km/h 3.7 km/h 86 % 0 mm
02:08 14.7 °C 12.4 °C 1011.4 hPa East 1.1 km/h 3.7 km/h 86 % 0 mm
02:13 14.7 °C 12.4 °C 1011.4 hPa East 0.6 km/h 3.7 km/h 86 % 0 mm
02:18 14.7 °C 12.4 °C 1011.4 hPa East 0.8 km/h 1.9 km/h 86 % 0 mm
02:23 14.7 °C 12.4 °C 1011.4 hPa East 0.5 km/h 1.9 km/h 86 % 0 mm
02:28 14.7 °C 12.3 °C 1011.4 hPa East 1 km/h 1.9 km/h 86 % 0 mm
02:33 14.7 °C 12.3 °C 1011.1 hPa East 1.4 km/h 3.7 km/h 86 % 0 mm
02:35 14.7 °C 12.4 °C 1011.1 hPa East 1.1 km/h 3.7 km/h 86 % 0 mm
02:40 14.7 °C 12.3 °C 1011.1 hPa East 1.1 km/h 1.9 km/h 86 % 0 mm
02:45 14.7 °C 12.5 °C 1011.1 hPa East 1.1 km/h 3.7 km/h 87 % 0 mm
02:55 14.7 °C 12.5 °C 1011.1 hPa East 0.3 km/h 1.9 km/h 87 % 0 mm
03:00 14.7 °C 12.5 °C 1011.1 hPa East 1 km/h 1.9 km/h 87 % 0 mm
03:05 14.7 °C 12.5 °C 1011.1 hPa East 1.3 km/h 3.7 km/h 87 % 0 mm
03:10 14.7 °C 12.5 °C 1011.1 hPa East 1.3 km/h 3.7 km/h 87 % 0 mm
03:15 14.7 °C 12.5 °C 1011.1 hPa East 1.1 km/h 1.9 km/h 87 % 0 mm
03:20 14.7 °C 12.5 °C 1011.1 hPa ENE 1.9 km/h 3.7 km/h 87 % 0 mm
03:25 14.7 °C 12.7 °C 1011.1 hPa ENE 2.3 km/h 4.8 km/h 88 % 0 mm
03:30 14.6 °C 12.7 °C 1010.7 hPa ENE 4 km/h 5.6 km/h 88 % 0 mm
03:35 14.6 °C 12.6 °C 1010.7 hPa ENE 3.1 km/h 5.6 km/h 88 % 0 mm
03:36 14.6 °C 12.6 °C 1010.7 hPa ENE 3.1 km/h 5.6 km/h 88 % 0 mm
03:41 14.5 °C 12.7 °C 1010.7 hPa ENE 2.7 km/h 3.7 km/h 89 % 0 mm
03:46 14.4 °C 12.7 °C 1010.7 hPa ENE 3.2 km/h 5.6 km/h 89 % 0 mm
03:51 14.4 °C 12.7 °C 1010.7 hPa ENE 3.1 km/h 5.6 km/h 89 % 0 mm
03:56 14.4 °C 12.7 °C 1010.7 hPa ENE 1.9 km/h 5.6 km/h 89 % 0 mm
04:01 14.4 °C 12.8 °C 1011.1 hPa ENE 2.6 km/h 5.6 km/h 90 % 0 mm
04:06 14.4 °C 12.8 °C 1010.7 hPa ENE 3.1 km/h 5.6 km/h 90 % 0 mm
04:11 14.3 °C 12.9 °C 1010.7 hPa ENE 2.7 km/h 3.7 km/h 91 % 0.25 mm
04:16 14.3 °C 13 °C 1010.4 hPa ENE 3.5 km/h 5.6 km/h 92 % 0.25 mm
04:22 14.2 °C 12.9 °C 1010.7 hPa ENE 3.5 km/h 5.6 km/h 92 % 0.25 mm
04:27 14.2 °C 13.1 °C 1010.7 hPa East 4.8 km/h 8 km/h 93 % 0.25 mm
04:32 14.1 °C 12.9 °C 1011.1 hPa ENE 4.8 km/h 5.6 km/h 93 % 0.51 mm
04:37 14 °C 12.9 °C 1010.7 hPa ENE 5.1 km/h 7.4 km/h 93 % 0.51 mm
04:42 13.9 °C 12.8 °C 1011.1 hPa ENE 2.9 km/h 5.6 km/h 93 % 0.51 mm
04:47 13.9 °C 13 °C 1010.7 hPa ENE 2.4 km/h 5.6 km/h 94 % 0.51 mm
04:52 13.8 °C 12.9 °C 1010.7 hPa ENE 1.8 km/h 3.7 km/h 94 % 0.51 mm
04:57 13.8 °C 12.9 °C 1011.1 hPa ENE 1.3 km/h 3.7 km/h 94 % 0.76 mm
05:02 13.8 °C 12.9 °C 1010.7 hPa ENE 1 km/h 3.7 km/h 94 % 0.76 mm
05:07 13.8 °C 13.1 °C 1011.1 hPa ENE 1.6 km/h 3.7 km/h 95 % 0.76 mm
05:12 13.8 °C 13.1 °C 1011.1 hPa ENE 1.6 km/h 3.7 km/h 95 % 0.51 mm
05:17 13.8 °C 13 °C 1011.1 hPa ENE 1.4 km/h 3.7 km/h 95 % 0.51 mm
05:22 13.8 °C 13 °C 1011.1 hPa ENE 2.1 km/h 3.7 km/h 95 % 0.51 mm
05:27 13.7 °C 12.9 °C 1010.7 hPa ENE 2.1 km/h 3.7 km/h 95 % 0.51 mm
05:30 13.7 °C 12.9 °C 1011.1 hPa ENE 1.8 km/h 3.7 km/h 95 % 0.76 mm
05:35 13.6 °C 12.8 °C 1011.1 hPa ENE 3.2 km/h 9.3 km/h 95 % 0.51 mm
05:40 13.6 °C 12.8 °C 1011.1 hPa ENE 2.9 km/h 5.6 km/h 95 % 0.51 mm
05:45 13.6 °C 12.8 °C 1011.1 hPa ENE 2.9 km/h 3.7 km/h 95 % 0.76 mm
05:50 13.5 °C 12.7 °C 1011.1 hPa ENE 3.2 km/h 5.6 km/h 95 % 0.76 mm
05:55 13.5 °C 12.7 °C 1011.1 hPa ENE 3.2 km/h 4.8 km/h 95 % 0.76 mm
06:00 13.5 °C 12.7 °C 1011.1 hPa ENE 2.7 km/h 3.7 km/h 95 % 1.02 mm
06:05 13.5 °C 12.9 °C 1011.1 hPa ENE 2.1 km/h 4.8 km/h 96 % 1.27 mm
06:11 13.5 °C 12.9 °C 1011.1 hPa ENE 1.6 km/h 3.2 km/h 96 % 0.25 mm
06:16 13.4 °C 12.8 °C 1011.1 hPa ENE 1.6 km/h 4.8 km/h 96 % 0.25 mm
06:21 13.4 °C 12.8 °C 1011.1 hPa ENE 3.2 km/h 8 km/h 96 % 0.25 mm
06:26 13.4 °C 12.8 °C 1011.4 hPa ENE 3.2 km/h 11.3 km/h 96 % 0.25 mm
06:31 13.4 °C 12.8 °C 1011.4 hPa ENE 6.3 km/h 8 km/h 96 % 2.03 mm
06:36 13.3 °C 12.7 °C 1011.4 hPa ENE 3.2 km/h 12.9 km/h 96 % 0 mm
06:41 13.3 °C 12.7 °C 1011.4 hPa ENE 3.2 km/h 8 km/h 96 % 0 mm
06:46 13.3 °C 12.7 °C 1011.4 hPa ENE 3.2 km/h 12.9 km/h 96 % 0 mm
06:51 13.3 °C 12.7 °C 1011.1 hPa ENE 3.2 km/h 11.3 km/h 96 % 0 mm
06:56 13.3 °C 12.7 °C 1011.4 hPa ENE 1.6 km/h 12.9 km/h 96 % 0 mm
07:01 13.3 °C 12.7 °C 1011.4 hPa ENE 5.6 km/h 11.3 km/h 96 % 2.54 mm
07:06 13.3 °C 12.7 °C 1011.4 hPa ENE 4.3 km/h 11.3 km/h 96 % 2.54 mm
07:10 13.3 °C 12.7 °C 1011.7 hPa ENE 3.9 km/h 7.4 km/h 96 % 2.79 mm
07:16 13.3 °C 12.7 °C 1011.4 hPa ENE 3.2 km/h 11.3 km/h 96 % 0 mm
07:20 13.3 °C 12.7 °C 1011.4 hPa ENE 3.2 km/h 16.1 km/h 96 % 0 mm
07:26 13.3 °C 12.7 °C 1011.4 hPa ENE 4.8 km/h 14.5 km/h 96 % 0 mm
07:30 13.3 °C 12.7 °C 1011.7 hPa ENE 3.2 km/h 4.8 km/h 96 % 0 mm
07:36 13.3 °C 12.8 °C 1011.4 hPa ENE 3.2 km/h 6.4 km/h 97 % 0 mm
07:41 13.3 °C 12.8 °C 1011.1 hPa ENE 4.8 km/h 9.7 km/h 97 % 0 mm
07:46 13.3 °C 12.8 °C 1011.4 hPa ENE 3.2 km/h 11.3 km/h 97 % 0 mm
07:51 13.3 °C 12.8 °C 1011.1 hPa ENE 4.8 km/h 12.9 km/h 97 % 0.25 mm
07:56 13.3 °C 12.8 °C 1011.4 hPa ENE 3.2 km/h 9.7 km/h 97 % 0 mm
08:01 13.2 °C 12.8 °C 1011.4 hPa ENE 2.6 km/h 5.6 km/h 97 % 1.27 mm
08:06 13.2 °C 12.8 °C 1011.4 hPa ENE 5.3 km/h 11.1 km/h 97 % 1.02 mm
08:11 13.2 °C 12.8 °C 1011.4 hPa ENE 3.5 km/h 5.6 km/h 97 % 1.02 mm
08:16 13.3 °C 12.8 °C 1011.7 hPa ENE 4.2 km/h 5.6 km/h 97 % 1.02 mm
08:21 13.3 °C 12.8 °C 1011.4 hPa ENE 6.1 km/h 13 km/h 97 % 1.02 mm
08:26 13.3 °C 12.8 °C 1011.7 hPa ENE 4.8 km/h 11.1 km/h 97 % 1.02 mm
08:31 13.3 °C 12.8 °C 1011.7 hPa East 5.6 km/h 9.3 km/h 97 % 1.02 mm
08:36 13.2 °C 12.8 °C 1011.7 hPa ENE 4.8 km/h 7.4 km/h 97 % 0.76 mm
08:41 13.2 °C 12.7 °C 1011.7 hPa ENE 5.6 km/h 6.4 km/h 97 % 0.76 mm
08:46 13.2 °C 12.7 °C 1011.7 hPa ENE 5 km/h 6.4 km/h 97 % 0.51 mm
08:51 13.3 °C 12.8 °C 1011.7 hPa ENE 5.1 km/h 11.1 km/h 97 % 0.25 mm
08:56 13.3 °C 12.9 °C 1011.7 hPa ENE 6.3 km/h 9.3 km/h 97 % 0.25 mm
09:01 13.3 °C 12.8 °C 1011.7 hPa ENE 4.5 km/h 7.4 km/h 97 % 0.25 mm
09:06 13.3 °C 12.8 °C 1011.7 hPa ENE 3.4 km/h 5.6 km/h 97 % 0.25 mm
09:11 13.3 °C 12.9 °C 1011.7 hPa East 5.6 km/h 8 km/h 97 % 0 mm
09:16 13.3 °C 12.8 °C 1012.1 hPa ENE 4.5 km/h 6.4 km/h 97 % 0 mm
09:21 13.3 °C 12.8 °C 1012.1 hPa ENE 3.4 km/h 5.6 km/h 97 % 0 mm
09:26 13.3 °C 12.9 °C 1012.1 hPa ENE 3.9 km/h 5.6 km/h 97 % 0.25 mm
09:32 13.4 °C 12.9 °C 1011.7 hPa East 3.9 km/h 7.4 km/h 97 % 0.25 mm
09:37 13.5 °C 13.1 °C 1011.7 hPa East 6.1 km/h 8 km/h 97 % 0.25 mm
09:42 13.7 °C 13.3 °C 1011.7 hPa East 5 km/h 7.4 km/h 97 % 0.25 mm
09:47 14 °C 13.7 °C 1012.1 hPa East 4.3 km/h 5.6 km/h 98 % 0.25 mm
09:52 14.1 °C 13.6 °C 1012.1 hPa ENE 3.5 km/h 5.6 km/h 97 % 0.25 mm
09:57 14.2 °C 13.7 °C 1012.1 hPa ENE 3.7 km/h 6.4 km/h 97 % 0.25 mm
10:02 14.2 °C 13.8 °C 1012.1 hPa ENE 4.7 km/h 9.3 km/h 97 % 0.25 mm
10:07 14.3 °C 13.8 °C 1012.1 hPa East 5.1 km/h 8 km/h 97 % 0.25 mm
10:12 14.2 °C 13.7 °C 1011.7 hPa East 5.6 km/h 8 km/h 97 % 0.25 mm
10:17 14.2 °C 13.8 °C 1012.1 hPa ENE 3.4 km/h 5.6 km/h 97 % 0.25 mm
10:22 14.2 °C 13.8 °C 1012.4 hPa East 3.9 km/h 8 km/h 97 % 0.25 mm
10:27 14.2 °C 13.8 °C 1012.4 hPa East 3.2 km/h 7.4 km/h 97 % 0 mm
10:32 14.1 °C 13.5 °C 1012.1 hPa ENE 3.9 km/h 6.4 km/h 96 % 0 mm
10:37 14.1 °C 13.5 °C 1012.1 hPa ENE 4.5 km/h 5.6 km/h 96 % 0 mm
10:42 14.2 °C 13.6 °C 1012.1 hPa East 5.8 km/h 11.1 km/h 96 % 0 mm
10:47 14.1 °C 13.5 °C 1012.1 hPa ENE 4.5 km/h 6.4 km/h 96 % 0 mm
10:52 13.9 °C 13.2 °C 1012.4 hPa ENE 5 km/h 11.1 km/h 95 % 0 mm
10:57 13.8 °C 13.1 °C 1012.4 hPa ENE 5.5 km/h 7.4 km/h 95 % 0 mm
11:02 13.6 °C 12.6 °C 1012.4 hPa ENE 7.2 km/h 14.8 km/h 94 % 0 mm
11:07 13.4 °C 12.7 °C 1012.8 hPa ENE 5.5 km/h 11.3 km/h 95 % 0 mm
11:12 13.3 °C 12.4 °C 1012.8 hPa NE 5.6 km/h 11.1 km/h 94 % 0 mm
11:17 13.2 °C 12.4 °C 1012.4 hPa ENE 4.7 km/h 7.4 km/h 95 % 0 mm
11:22 13.2 °C 12.4 °C 1012.4 hPa ENE 10.6 km/h 14.5 km/h 95 % 0 mm
11:27 13.1 °C 12.3 °C 1012.4 hPa East 10.8 km/h 14.8 km/h 95 % 0 mm
11:32 13 °C 12.2 °C 1012.8 hPa East 9.8 km/h 12.9 km/h 95 % 0 mm
11:37 12.9 °C 12.1 °C 1012.8 hPa ENE 8.5 km/h 18.5 km/h 95 % 0 mm
11:43 12.8 °C 12 °C 1012.4 hPa ENE 10.6 km/h 22.2 km/h 95 % 0 mm
11:48 12.7 °C 11.9 °C 1012.4 hPa East 11.3 km/h 25.9 km/h 95 % 0 mm
11:53 12.7 °C 11.9 °C 1012.4 hPa ENE 7.4 km/h 18.5 km/h 95 % 0 mm
11:58 12.7 °C 11.9 °C 1012.8 hPa ENE 12.2 km/h 18.5 km/h 95 % 0.25 mm
12:03 12.7 °C 12.1 °C 1012.8 hPa East 4.5 km/h 13 km/h 96 % 0.25 mm
12:08 12.7 °C 12.1 °C 1013.1 hPa ENE 9.7 km/h 16.7 km/h 96 % 0.25 mm
12:13 12.6 °C 12 °C 1013.1 hPa East 4.7 km/h 13 km/h 96 % 0.25 mm
12:18 12.6 °C 11.9 °C 1013.4 hPa NE 5.8 km/h 16.7 km/h 96 % 0.25 mm
12:21 12.5 °C 11.7 °C 1013.4 hPa ENE 11.6 km/h 20.4 km/h 95 % 0.25 mm
12:26 12.4 °C 11.8 °C 1013.4 hPa NE 10.1 km/h 14.8 km/h 96 % 0.25 mm
12:31 12.4 °C 11.8 °C 1013.4 hPa ENE 6.4 km/h 11.1 km/h 96 % 0.51 mm
12:36 12.5 °C 11.9 °C 1013.1 hPa ENE 7.4 km/h 16.1 km/h 96 % 0.51 mm
12:42 12.5 °C 11.9 °C 1013.1 hPa ENE 10.3 km/h 16.7 km/h 96 % 0.51 mm
12:47 12.5 °C 11.9 °C 1013.4 hPa NE 4.5 km/h 18.5 km/h 96 % 0.76 mm
12:52 12.6 °C 11.9 °C 1013.8 hPa East 6.8 km/h 11.1 km/h 96 % 0.76 mm
12:53 12.6 °C 11.9 °C 1013.8 hPa NNE 8 km/h 13 km/h 96 % 0.76 mm
12:58 12.4 °C 11.8 °C 1014.1 hPa NE 11.6 km/h 14.8 km/h 96 % 0.51 mm
13:03 12.4 °C 11.8 °C 1014.4 hPa NNE 9.7 km/h 14.8 km/h 96 % 0.51 mm
13:08 12.4 °C 11.8 °C 1014.1 hPa ENE 8.5 km/h 16.7 km/h 96 % 0.51 mm
13:11 12.4 °C 11.8 °C 1013.8 hPa ENE 5.1 km/h 18.5 km/h 96 % 0.51 mm
13:16 12.4 °C 11.8 °C 1014.1 hPa ENE 9.7 km/h 20.9 km/h 96 % 0 mm
13:21 12.4 °C 11.8 °C 1014.4 hPa ENE 8 km/h 14.5 km/h 96 % 0 mm
13:26 12.4 °C 11.8 °C 1014.4 hPa ENE 3.2 km/h 12.9 km/h 96 % 0 mm
13:31 12.3 °C 11.7 °C 1014.4 hPa ENE 9.7 km/h 14.5 km/h 96 % 0 mm
13:36 12.3 °C 11.7 °C 1014.4 hPa ENE 8 km/h 16.1 km/h 96 % 0 mm
13:41 12.4 °C 11.8 °C 1014.4 hPa ENE 3.2 km/h 11.3 km/h 96 % 0 mm
13:46 12.4 °C 11.8 °C 1014.1 hPa ENE 3.2 km/h 16.1 km/h 96 % 0 mm
13:51 12.4 °C 11.8 °C 1014.1 hPa ENE 8 km/h 14.5 km/h 96 % 0 mm
13:56 12.5 °C 11.9 °C 1014.4 hPa ENE 4.8 km/h 11.3 km/h 96 % 0 mm
14:01 12.6 °C 11.9 °C 1014.4 hPa ENE 3.7 km/h 6.4 km/h 96 % 0.25 mm
14:06 12.5 °C 11.9 °C 1014.4 hPa ENE 4.8 km/h 11.3 km/h 96 % 0 mm
14:11 12.6 °C 11.9 °C 1014.4 hPa East 3.5 km/h 5.6 km/h 96 % 0.25 mm
14:16 12.6 °C 11.9 °C 1014.8 hPa ENE 4.8 km/h 8 km/h 96 % 0 mm
14:21 12.6 °C 11.9 °C 1014.8 hPa ENE 3.2 km/h 11.3 km/h 96 % 0 mm
14:26 12.6 °C 11.9 °C 1014.8 hPa ENE 4.8 km/h 11.3 km/h 96 % 0 mm
14:28 12.5 °C 11.9 °C 1015.1 hPa ENE 4.5 km/h 5.6 km/h 96 % 0.25 mm
14:33 12.5 °C 11.9 °C 1015.1 hPa ENE 9.8 km/h 14.8 km/h 96 % 0.25 mm
14:38 12.5 °C 11.9 °C 1015.1 hPa ENE 5.5 km/h 7.4 km/h 96 % 0.25 mm
14:43 12.4 °C 11.8 °C 1015.1 hPa ENE 6 km/h 11.1 km/h 96 % 0.25 mm
14:48 12.4 °C 11.8 °C 1015.1 hPa NE 3.9 km/h 5.6 km/h 96 % 0 mm
14:53 12.3 °C 11.7 °C 1015.1 hPa ENE 3.7 km/h 7.4 km/h 96 % 0 mm
14:58 12.3 °C 11.7 °C 1015.1 hPa ENE 3.5 km/h 5.6 km/h 96 % 0 mm
15:03 12.4 °C 11.8 °C 1015.1 hPa ENE 2.9 km/h 4.8 km/h 96 % 0 mm
15:08 12.4 °C 11.8 °C 1015.1 hPa ENE 3.9 km/h 5.6 km/h 96 % 0 mm
15:14 12.4 °C 11.8 °C 1015.5 hPa ENE 3.9 km/h 5.6 km/h 96 % 0 mm
15:19 12.5 °C 11.9 °C 1015.1 hPa ENE 3.4 km/h 5.6 km/h 96 % 0 mm
15:24 12.6 °C 11.9 °C 1015.1 hPa East 4 km/h 7.4 km/h 96 % 0 mm
15:29 12.6 °C 12 °C 1015.1 hPa ENE 4.2 km/h 6.4 km/h 96 % 0 mm
15:34 12.7 °C 12.1 °C 1014.8 hPa ENE 4.5 km/h 5.6 km/h 96 % 0 mm
15:39 12.9 °C 12.4 °C 1015.5 hPa East 2.1 km/h 5.6 km/h 97 % 0 mm
15:44 12.9 °C 12.5 °C 1015.5 hPa East 2.7 km/h 5.6 km/h 97 % 0 mm
15:49 12.8 °C 12.2 °C 1015.5 hPa ENE 3.2 km/h 5.6 km/h 96 % 0 mm
15:54 12.8 °C 12.2 °C 1015.5 hPa ENE 2.6 km/h 3.7 km/h 96 % 0 mm
15:59 12.9 °C 12.3 °C 1015.5 hPa ENE 1.9 km/h 3.7 km/h 96 % 0 mm
16:04 12.9 °C 12.3 °C 1015.8 hPa ENE 1.1 km/h 3.7 km/h 96 % 0 mm
16:09 12.9 °C 12.3 °C 1015.5 hPa ENE 1.8 km/h 3.7 km/h 96 % 0 mm
16:14 12.8 °C 12.2 °C 1015.5 hPa ENE 1.9 km/h 3.7 km/h 96 % 0 mm
16:19 12.8 °C 12.2 °C 1015.5 hPa ENE 2.3 km/h 5.6 km/h 96 % 0 mm
16:24 12.8 °C 12.2 °C 1015.5 hPa ENE 1.1 km/h 3.7 km/h 96 % 0 mm
16:29 12.8 °C 12.2 °C 1015.5 hPa ENE 1.6 km/h 3.7 km/h 96 % 0 mm
16:34 12.8 °C 12.2 °C 1015.8 hPa ENE 1.3 km/h 3.7 km/h 96 % 0 mm
16:39 12.9 °C 12.3 °C 1015.8 hPa ENE 0.6 km/h 3.7 km/h 96 % 0 mm
16:44 12.9 °C 12.3 °C 1015.8 hPa ENE 0.8 km/h 1.9 km/h 96 % 0 mm
16:49 12.9 °C 12.3 °C 1015.8 hPa ENE 2.3 km/h 3.7 km/h 96 % 0 mm
16:54 12.9 °C 12.3 °C 1015.8 hPa ENE 1 km/h 3.7 km/h 96 % 0 mm
17:00 13.1 °C 12.4 °C 1015.8 hPa ENE 0.3 km/h 3.7 km/h 96 % 0 mm
17:05 13.1 °C 12.4 °C 1015.8 hPa ENE 0.2 km/h 1.9 km/h 96 % 0 mm
17:10 13.1 °C 12.4 °C 1015.8 hPa ENE 0.3 km/h 1.9 km/h 96 % 0 mm
17:15 13.1 °C 12.4 °C 1016.1 hPa ENE 0.5 km/h 1.9 km/h 96 % 0 mm
17:20 13.1 °C 12.4 °C 1016.1 hPa ENE 1.1 km/h 3.7 km/h 96 % 0 mm
17:25 13.1 °C 12.4 °C 1016.5 hPa ENE 0.2 km/h 1.9 km/h 96 % 0 mm
17:30 13.1 °C 12.5 °C 1016.5 hPa ENE 0.2 km/h 1.9 km/h 96 % 0 mm
17:31 13.1 °C 12.5 °C 1016.5 hPa Calm   1.9 km/h 96 % 0 mm
17:36 13.1 °C 12.4 °C 1016.5 hPa Calm   1.9 km/h 96 % 0 mm
17:41 13.1 °C 12.4 °C 1016.5 hPa ENE 0.2 km/h 1.9 km/h 96 % 0 mm
17:46 13.1 °C 12.4 °C 1016.5 hPa ENE 0.3 km/h 1.9 km/h 96 % 0 mm
17:51 13 °C 12.4 °C 1016.1 hPa ENE 0.3 km/h 1.9 km/h 96 % 0 mm
17:56 13 °C 12.2 °C 1016.1 hPa ENE 1.6 km/h 3.7 km/h 95 % 0 mm
18:01 13.1 °C 12.4 °C 1016.1 hPa ENE 1.4 km/h 3.7 km/h 96 % 0 mm
18:06 13.1 °C 12.3 °C 1016.1 hPa ENE 0.2 km/h 1.6 km/h 95 % 0 mm
18:11 13.2 °C 12.4 °C 1016.1 hPa ENE 0.2 km/h 1.9 km/h 95 % 0 mm
18:16 13.2 °C 12.4 °C 1016.5 hPa ENE 0.2 km/h 1.9 km/h 95 % 0 mm
18:21 13.2 °C 12.4 °C 1016.5 hPa ENE 0.2 km/h 1.9 km/h 95 % 0 mm
18:26 13.2 °C 12.4 °C 1016.5 hPa ENE 0.5 km/h 1.9 km/h 95 % 0 mm
18:31 13.2 °C 12.4 °C 1016.8 hPa ENE 0.2 km/h 1.9 km/h 95 % 0 mm
18:36 13.2 °C 12.4 °C 1016.8 hPa Calm     95 % 0 mm
18:41 13.2 °C 12.4 °C 1016.8 hPa Calm     95 % 0 mm
18:46 13.2 °C 12.4 °C 1016.8 hPa ENE 0.2 km/h 1.9 km/h 95 % 0 mm
18:51 13.2 °C 12.4 °C 1016.8 hPa Calm     95 % 0 mm
18:56 13.2 °C 12.4 °C 1016.8 hPa ENE 0.2 km/h 1.9 km/h 95 % 0 mm
19:01 13.2 °C 12.4 °C 1016.8 hPa ENE 0.2 km/h 1.9 km/h 95 % 0 mm
19:06 13.2 °C 12.4 °C 1017.2 hPa Calm     95 % 0 mm
19:11 13.2 °C 12.4 °C 1017.2 hPa Calm     95 % 0 mm
19:16 13.2 °C 12.4 °C 1017.2 hPa Calm   1.9 km/h 95 % 0 mm
19:21 13.2 °C 12.4 °C 1017.2 hPa Calm   1.6 km/h 95 % 0 mm
19:26 13.2 °C 12.4 °C 1017.2 hPa Calm   5.6 km/h 95 % 0 mm
19:31 13.2 °C 12.4 °C 1017.2 hPa Calm   1.9 km/h 95 % 0 mm
19:36 13.2 °C 12.4 °C 1017.5 hPa Calm     95 % 0 mm
19:41 13.2 °C 12.4 °C 1017.5 hPa Calm     95 % 0 mm
19:46 13.2 °C 12.4 °C 1017.5 hPa Calm     95 % 0 mm
19:51 13.2 °C 12.4 °C 1017.5 hPa Calm     95 % 0 mm
19:56 13.2 °C 12.4 °C 1017.5 hPa Calm     95 % 0 mm
20:01 13.2 °C 12.4 °C 1017.2 hPa Calm     95 % 0 mm
20:07 13.2 °C 12.4 °C 1017.2 hPa Calm     95 % 0 mm
20:12 13.2 °C 12.4 °C 1017.5 hPa Calm     95 % 0 mm
20:17 13.1 °C 12.3 °C 1017.5 hPa Calm     95 % 0 mm
20:22 13.1 °C 12.3 °C 1017.2 hPa Calm   1.9 km/h 95 % 0 mm
20:27 13.1 °C 12.1 °C 1017.2 hPa Calm     94 % 0 mm
20:32 13.1 °C 12.1 °C 1017.2 hPa Calm     94 % 0 mm
20:37 13.1 °C 12.1 °C 1017.2 hPa Calm     94 % 0 mm
20:42 13 °C 12.1 °C 1017.5 hPa Calm     94 % 0 mm
20:47 13 °C 12.1 °C 1017.5 hPa Calm   3.7 km/h 94 % 0 mm
20:52 13 °C 12.1 °C 1017.5 hPa Calm     94 % 0 mm
20:57 13 °C 12.1 °C 1017.5 hPa Calm     94 % 0 mm
21:02 12.9 °C 12 °C 1017.5 hPa Calm     94 % 0 mm
21:07 12.9 °C 12 °C 1017.5 hPa Calm     94 % 0 mm
21:12 12.9 °C 12.2 °C 1017.5 hPa Calm     95 % 0 mm
21:17 12.9 °C 12.2 °C 1017.5 hPa Calm     95 % 0 mm
21:22 12.9 °C 12.2 °C 1017.5 hPa Calm     95 % 0 mm
21:27 12.9 °C 12.1 °C 1017.5 hPa Calm     95 % 0 mm
21:32 12.9 °C 12.1 °C 1017.8 hPa Calm     95 % 0 mm
21:37 12.9 °C 12.1 °C 1017.8 hPa ESE 1.6 km/h 5.6 km/h 95 % 0 mm
21:42 12.9 °C 12.1 °C 1017.8 hPa Calm     95 % 0 mm
21:47 12.8 °C 12.1 °C 1017.8 hPa Calm   1.9 km/h 95 % 0 mm
21:52 12.8 °C 12.1 °C 1017.8 hPa SE 0.2 km/h   95 % 0 mm
21:57 12.8 °C 12.1 °C 1017.8 hPa SE 0.8 km/h 1.9 km/h 95 % 0 mm
22:02 12.8 °C 12.1 °C 1017.8 hPa Calm   1.9 km/h 95 % 0 mm
22:07 12.8 °C 12.1 °C 1017.8 hPa SE 0.2 km/h 1.9 km/h 95 % 0 mm
22:12 12.8 °C 12 °C 1017.8 hPa SE 0.3 km/h 1.9 km/h 95 % 0 mm
22:17 12.8 °C 12 °C 1017.8 hPa Calm   1.6 km/h 95 % 0 mm
22:22 12.8 °C 12 °C 1017.8 hPa Calm   1.9 km/h 95 % 0 mm
22:23 12.8 °C 12 °C 1017.8 hPa Calm     95 % 0 mm
22:28 12.8 °C 12 °C 1017.8 hPa SE 0.5 km/h 3.7 km/h 95 % 0 mm
22:33 12.7 °C 11.9 °C 1017.5 hPa SE 0.8 km/h 3.7 km/h 95 % 0 mm
22:38 12.7 °C 11.9 °C 1017.8 hPa Calm   3.7 km/h 95 % 0 mm
22:43 12.7 °C 11.9 °C 1017.8 hPa SE 1.3 km/h 3.7 km/h 95 % 0 mm
22:48 12.7 °C 11.9 °C 1017.8 hPa SE 0.3 km/h 1.9 km/h 95 % 0 mm
22:53 12.7 °C 11.9 °C 1017.8 hPa SE 0.5 km/h 3.7 km/h 95 % 0 mm
22:58 12.7 °C 11.9 °C 1017.8 hPa Calm     95 % 0 mm
23:03 12.7 °C 11.9 °C 1017.8 hPa Calm     95 % 0 mm
23:08 12.6 °C 11.8 °C 1018.2 hPa Calm     95 % 0 mm
23:18 12.6 °C 11.8 °C 1018.2 hPa Calm     95 % 0 mm
23:24 12.6 °C 11.8 °C 1017.8 hPa Calm     95 % 0 mm
23:29 12.6 °C 11.8 °C 1017.8 hPa Calm   1.9 km/h 95 % 0 mm
23:34 12.6 °C 11.8 °C 1017.8 hPa Calm     95 % 0 mm
23:39 12.6 °C 11.8 °C 1017.8 hPa Calm     95 % 0 mm
23:44 12.6 °C 11.8 °C 1017.8 hPa Calm     95 % 0 mm
23:49 12.6 °C 11.8 °C 1017.8 hPa Calm   1.9 km/h 95 % 0 mm
23:54 12.7 °C 11.9 °C 1017.8 hPa Calm     95 % 0 mm
23:59 12.7 °C 11.9 °C 1017.8 hPa Calm     95 % 0 mm
Crab Meadow Weather
Compliments of Weather Underground - 3 mb

Script developed by  Jim McMurry - jmcmurry@mwt.net Adapted for the template by  Wim van der Kuil - Leuven-Template.eu

Hurricanes: Hurricanes are classified into five categories, based on their wind speeds and potential to cause damage. * Category One -- Winds 74-95 miles per hour * Category Two -- Winds 96-110 miles per hour * Category Three -- Winds 111-130 miles per hour * Category Four -- Winds 131-155 miles per hour * Category Five -- Winds greater than 155 miles per hour.